sat.trackr.live / text

‹ back to catalog

STARLINK-31668

NORAD 59580 · 2024-076S

PAYLOAD ACTIVE UNKNOWN

§ Identity

Operator
Country
US
Launch date
2024-04-23
Launch site
AFETR
Launch vehicle
Mass (kg)
RCS (m²)

Purposes: comms

External: N2YO · Heavens-Above · Gunter

§ Orbital elements

Epoch: 2026-05-24T20:04:06.666528Z

Period
94.27 min
Inclination
43.0004°
Eccentricity
0.0001168
Mean motion
15.27580834 rev/d
Perigee alt
482.2 km
Apogee alt
483.8 km
Semi-major
6,861.2 km
B*
7.6413e-5
RAAN
298.5054°
Arg perigee
271.2355°
Mean anomaly
88.8363°
Rev number
11,815

§ Raw data

STARLINK-316681 59580U 24076S   26144.83618827  .00001841  00000+0  76413-4 0  99942 59580  43.0004 298.5054 0001168 271.2355  88.8363 15.27580834118159

JSON: /api/v1/satellites/59580 · /tle

For live sub-satellite position, see the globe view (requires WebGL).

§ Visibility from observer

Set your observer location to see the next 7 days of passes ≥ 10°. The values pass through the URL so the page stays shareable.

No JS? Fill the form by hand. The geolocation button needs JavaScript.